This is the latest recevied weather packets stored in our database for station/object DW9280. If no packets are shown the sender has not sent any weather packets the latest 10 day(s).
| Time | Temp. | Humidity | Pressure | Rain* | Wind** | Luminosity | Snow |
|---|---|---|---|---|---|---|---|
| 1787900947 | 18.89° C | 97% | 1006.2 hPa | 0 mm | - | 111 W/m² | - |
| 1787900649 | 18.89° C | 97% | 1006.3 hPa | 0 mm | - | 121 W/m² | - |
| 1787900348 | 18.89° C | 97% | 1006.3 hPa | 0 mm | - | 104 W/m² | - |
| 1787900046 | 18.89° C | 97% | 1006.3 hPa | 0 mm | - | 91 W/m² | - |
| 1787899747 | 18.89° C | 97% | 1006.3 hPa | 0 mm | - | 77 W/m² | - |
| 1787899447 | 18.89° C | 97% | 1006.3 hPa | 0 mm | - | 67 W/m² | - |
| 1787899150 | 18.89° C | 97% | 1006.2 hPa | 0 mm | - | 65 W/m² | - |
| 1787898848 | 18.89° C | 97% | 1006.3 hPa | 0 mm | - | 63 W/m² | - |
| 1787898547 | 18.89° C | 97% | 1006.3 hPa | 0 mm | - | 60 W/m² | - |
| 1787898372 | 18.89° C | 97% | 1006.4 hPa | 0 mm | - | 51 W/m² | - |
| 1787897946 | 18.89° C | 97% | 1006.5 hPa | 0 mm | - | 53 W/m² | - |
| 1787897647 | 18.89° C | 97% | 1006.5 hPa | 0 mm | - | 46 W/m² | - |
| 1787897349 | 18.89° C | 97% | 1006.6 hPa | 0 mm | - | 40 W/m² | - |
| 1787897172 | 18.89° C | 97% | 1006.6 hPa | 0 mm | - | 40 W/m² | - |
| 1787896748 | 18.89° C | 97% | 1006.6 hPa | 0 mm | - | 39 W/m² | - |
| 1787896448 | 18.89° C | 97% | 1006.6 hPa | 0 mm | - | 33 W/m² | - |
| 1787896147 | 18.89° C | 97% | 1006.5 hPa | 0 mm | - | 32 W/m² | - |
| 1787895847 | 18.89° C | 97% | 1006.5 hPa | 0 mm | - | 28 W/m² | - |
| 1787895546 | 18.89° C | 97% | 1006.7 hPa | 0 mm | - | 26 W/m² | - |
| 1787895246 | 18.89° C | 97% | 1006.6 hPa | 0 mm | - | 19 W/m² | - |
| 1787894947 | 18.89° C | 97% | 1006.5 hPa | 0 mm | - | 16 W/m² | - |
| 1787894648 | 18.89° C | 97% | 1006.4 hPa | 0 mm | - | 12 W/m² | - |
| 1787894347 | 18.89° C | 97% | 1006.4 hPa | 0 mm | - | 11 W/m² | - |
| 1787894048 | 18.89° C | 97% | 1006.4 hPa | 0 mm | - | 9 W/m² | - |
| 1787893748 | 18.89° C | 97% | 1006.3 hPa | 0 mm | - | 7 W/m² | - |
* Rain latest hour (hover to see other rain measurements)
** Current wind speed in m/s (hover to see current wind gust speed)